Location: Unspecified
(48.2082°N, 0.0000°E)
Time: 17:53:17
(UTC+00:00)

Tiros 1 despin weight - Visible Passes

Search period start: 19 June 2019 00:00
Search period end: 29 June 2019 00:00
Orbit: 595 x 642 km, 48.2° (Epoch: 19 June)

Date Brightness Start Highest point End Pass type
(mag) Time Alt. Az. Time Alt. Az. Time Alt. Az.
19 Jun ? 00:41:06 35° SSE 00:41:30 36° SSE 00:45:34 10° E visible
19 Jun ? 02:18:21 10° WSW 02:22:47 82° S 02:27:14 10° E visible
19 Jun ? 23:19:19 12° ESE 23:19:19 12° ESE 23:19:58 10° E visible
20 Jun ? 00:56:19 33° SW 00:57:59 54° SSE 01:02:18 10° E visible
20 Jun ? 02:35:01 10° W 02:39:26 89° NNW 02:43:53 10° E visible
20 Jun ? 23:34:24 25° ESE 23:34:24 25° ESE 23:37:10 10° E visible
21 Jun ? 01:11:24 19° WSW 01:14:33 73° SSE 01:18:57 10° E visible
21 Jun ? 02:51:40 10° W 02:56:06 89° S 03:00:33 10° E visible
21 Jun ? 23:49:18 41° S 23:49:48 43° SSE 23:54:00 10° E visible
22 Jun ? 01:26:43 10° W 01:31:10 87° S 01:35:36 10° E visible
22 Jun ? 03:08:19 10° W 03:12:44 77° SSW 03:17:10 10° ESE visible
22 Jun ? 22:26:49 18° ESE 22:26:49 18° ESE 22:28:40 10° E visible
23 Jun ? 00:03:46 24° SW 00:06:19 63° SSE 00:10:41 10° E visible
23 Jun ? 01:43:23 10° W 01:47:50 89° N 01:52:16 10° E visible
23 Jun ? 22:40:02 26° S 22:41:39 34° SSE 22:45:40 10° E visible
24 Jun ? 00:18:27 10° WSW 00:22:55 80° SSE 00:27:21 10° E visible
24 Jun ? 02:00:03 10° W 02:04:29 85° S 02:08:55 10° E visible
24 Jun ? 21:14:30 10° S 21:17:14 16° SE 21:19:57 10° E visible
24 Jun ? 22:53:47 10° SW 22:58:07 51° SSE 23:02:25 10° E visible
25 Jun ? 00:35:06 10° W 00:39:33 90° NW 00:44:00 10° E visible
25 Jun ? 02:16:42 10° W 02:21:07 70° SSW 02:25:30 10° ESE visible
25 Jun ? 21:29:46 10° SSW 21:33:32 26° SE 21:37:16 10° E visible
25 Jun ? 23:10:13 10° WSW 23:14:40 71° SSE 23:19:05 10° E visible
26 Jun ? 00:51:46 10° W 00:56:13 90° W 01:00:39 10° E visible
26 Jun ? 02:33:22 10° W 02:37:39 50° SSW 02:41:56 10° SE visible
26 Jun ? 21:45:43 10° SW 21:49:56 41° SSE 21:54:07 10° E visible
26 Jun ? 23:26:49 10° W 23:31:17 86° S 23:35:44 10° E visible
27 Jun ? 01:08:25 10° W 01:12:52 80° SSW 01:17:17 10° ESE visible
27 Jun ? 02:50:08 10° W 02:54:06 33° SSW 02:58:05 10° SSE visible
27 Jun ? 22:02:01 10° WSW 22:06:26 60° SSE 22:10:49 10° E visible
27 Jun ? 23:43:28 10° W 23:47:57 89° N 23:52:23 10° E visible
28 Jun ? 01:25:04 10° W 01:29:27 62° SSW 01:33:49 10° ESE visible
28 Jun ? 03:07:09 10° W 03:10:27 21° SW 03:13:45 10° S visible
28 Jun ? 22:18:32 10° WSW 22:23:02 78° SSE 22:27:29 10° E visible
